TimeMST,TemperatureF,Dew PointF,Humidity,Sea Level PressureIn,VisibilityMPH,Wind Direction,Wind SpeedMPH,Gust SpeedMPH,PrecipitationIn,Events,Conditions,WindDirDegrees,DateUTC
12:53 AM,41.0,24.1,51,29.71,10.0,South,3.5,-,N/A,,Overcast,190,2013-01-10 07:53:00
1:53 AM,41.0,24.1,51,29.66,10.0,SE,15.0,20.7,N/A,,Overcast,140,2013-01-10 08:53:00
2:53 AM,39.9,25.0,55,29.66,10.0,South,17.3,28.8,0.00,,Overcast,180,2013-01-10 09:53:00
3:14 AM,37.4,24.8,60,29.67,10.0,SW,9.2,23.0,0.00,Rain,Light Rain,230,2013-01-10 10:14:00
3:53 AM,37.0,30.0,76,29.65,10.0,South,21.9,32.2,0.00,Rain,Light Rain,180,2013-01-10 10:53:00
4:53 AM,39.2,28.4,65,29.61,10.0,South,21.9,29.9,N/A,,Overcast,180,2013-01-10 11:53:00
5:53 AM,39.9,28.9,65,29.59,10.0,South,19.6,28.8,N/A,,Overcast,190,2013-01-10 12:53:00
6:53 AM,41.0,26.1,55,29.53,10.0,Calm,Calm,-,N/A,,Overcast,0,2013-01-10 13:53:00
7:53 AM,37.0,28.0,70,29.55,10.0,West,3.5,-,N/A,,Overcast,270,2013-01-10 14:53:00
8:41 AM,37.4,26.6,65,29.56,10.0,WSW,23.0,28.8,N/A,,Overcast,240,2013-01-10 15:41:00
8:53 AM,32.0,27.0,82,29.63,10.0,WSW,38.0,50.6,0.00,Snow,Light Snow,240,2013-01-10 15:53:00
9:53 AM,28.0,24.1,85,29.69,7.0,SW,24.2,34.5,0.00,Snow,Light Snow,220,2013-01-10 16:53:00
10:53 AM,27.0,23.0,85,29.70,3.0,SW,24.2,28.8,0.01,Snow,Light Snow,230,2013-01-10 17:53:00
11:17 AM,26.6,23.0,86,29.65,1.5,SW,23.0,31.1,0.00,Snow,Light Snow,220,2013-01-10 18:17:00
11:53 AM,26.1,23.0,88,29.71,1.0,SW,23.0,27.6,0.00,Snow,Light Snow,230,2013-01-10 18:53:00
11:56 AM,26.6,23.0,86,29.64,0.8,SW,21.9,27.6,0.00,Snow,Light Snow,230,2013-01-10 18:56:00
12:53 PM,24.1,21.0,88,29.68,0.5,WSW,21.9,33.4,0.02,Fog-Snow,Snow,240,2013-01-10 19:53:00
1:53 PM,24.1,21.0,88,29.68,0.5,SW,20.7,28.8,0.01,Fog-Snow,Snow,220,2013-01-10 20:53:00
2:53 PM,24.1,21.0,88,29.69,0.5,SW,20.7,-,0.02,Fog-Snow,Snow,230,2013-01-10 21:53:00
3:53 PM,23.0,19.9,88,29.70,0.8,SW,21.9,28.8,0.01,Snow,Light Snow,220,2013-01-10 22:53:00
4:25 PM,23.0,19.4,86,29.64,3.0,WSW,25.3,31.1,0.00,Snow,Light Snow,240,2013-01-10 23:25:00
4:53 PM,21.9,19.0,89,29.69,3.0,WSW,26.5,31.1,0.00,Snow,Light Snow,240,2013-01-10 23:53:00
5:53 PM,21.9,18.0,85,29.68,3.0,SW,27.6,34.5,0.00,Snow,Light Snow,230,2013-01-11 00:53:00
6:53 PM,21.9,18.0,85,29.69,8.0,SW,21.9,33.4,0.00,Snow,Light Snow,230,2013-01-11 01:53:00
7:53 PM,21.0,17.1,85,29.69,8.0,WSW,25.3,-,0.00,Snow,Light Snow,240,2013-01-11 02:53:00
8:53 PM,21.0,18.0,88,29.70,5.0,WSW,24.2,35.7,0.00,Snow,Light Snow,240,2013-01-11 03:53:00
9:53 PM,21.0,17.1,85,29.71,8.0,WSW,23.0,29.9,0.00,Snow,Light Snow,240,2013-01-11 04:53:00
10:37 PM,19.4,17.6,93,29.63,4.0,WSW,25.3,-,0.00,Snow,Light Snow,240,2013-01-11 05:37:00
10:53 PM,21.0,17.1,85,29.72,4.0,WSW,25.3,-,0.00,Snow,Light Snow,240,2013-01-11 05:53:00
11:53 PM,21.0,16.0,81,29.72,7.0,WSW,26.5,34.5,0.00,,Overcast,240,2013-01-11 06:53:00